Content
SEND FEEDBACK

Daily
Averages
Monthly
Summary
Turkmenistan

KURTILE, TURKMENISTAN


Home > Asia > Turkmenistan
Elevation: 748 feet     Latitude: 37 58N     Longitude: 058 19E

WEATHER
 
SELECT A DAY
Number of Records: 181,070;   Date Range: 3/15/97 - 10/18/14
 
SHARE

PRINT THIS DATA

[ ← Previous Day ]
WEATHER ALMANAC - JANUARY 3, 2013
[ Next Day → ]
[ °C ]   °F
Weather ElementAverageHighLow
Temperature32.9 °F36 °F (5:00 am)28.4 °F (10:00 pm)
Dewpoint29.8 °F32 °F (5:00 am)26.6 °F (3:00 am)
Humidity87.5 %100 % (11:00 pm)69 % (5:00 am)
Barometer30.48 in30.56 in (8:00 pm)30.36 in (2:00 am)
Wind Speed4.8 mph11.2 mph (6:00 am)
Weather ElementAverage
Visibility5.4 mi
Wind DirectionSSW (195.6 °)

Weather ElementTotal
Precipitation---
Heating Degree Days32.8 (Base 65)
Averaged from 37 records on January 3, 2013
WEATHER CONDITIONS BREAKOUT
WIND DIRECTION BREAKOUT
WEATHER BY HOUR - JANUARY 3, 2013
[ °C ]   °F
Local TimeTemperatureDewpointHumidityBarometerVisibilityWind DirectionWind SpeedGust SpeedPrecipitationEventsConditions
1:00 AM35.6 °F28.4 °F75 %30.39 in6.2 miSW (230°)4.5 mphMostly Cloudy
2:00 AM33.8 °F28.4 °F81 %30.36 in6.2 miSSW (200°)4.5 mphMostly Cloudy
3:00 AM32.0 °F26.6 °F80 %30.39 in6.2 miSW (230°)6.7 mphMostly Cloudy
4:00 AM33.8 °F28.4 °F81 %30.39 in6.2 miWSW (240°)4.5 mphMostly Cloudy
5:00 AM36.0 °F29.0 °F69 %30.44 in6.0 miWest (270°)4.5 mphOvercast
5:00 AM35.6 °F32.0 °F87 %30.39 in6.2 miWest (270°)4.5 mphOvercast
6:00 AM35.6 °F32.0 °F87 %30.42 in6.2 miWNW (290°)11.2 mphOvercast
7:00 AM35.6 °F32.0 °F87 %30.42 in6.2 miWNW (300°)8.9 mphOvercast
8:00 AM33.8 °F32.0 °F93 %30.42 in6.2 miNW (320°)4.5 mphOvercast
8:00 AM35.0 °F31.0 °F79 %30.48 in6.0 miNNW (330°)6.7 mphOvercast
9:00 AM35.6 °F32.0 °F87 %30.45 in6.2 miWNW (300°)6.7 mphOvercast
10:00 AM33.8 °F30.2 °F87 %30.48 in5.6 miWNW (300°)6.7 mphSnowLight Snow
11:00 AM34.0 °F31.0 °F83 %30.53 in2.0 miNW (310°)4.5 mphSnowLight Snow Showers
11:00 AM33.8 °F32.0 °F93 %30.51 in3.1 miNW (310°)4.5 mphSnowLight Snow Showers
11:30 AM33.8 °F32.0 °F93 %30.51 inNW (310°)6.7 mphSnowLight Snow
12:00 PM33.8 °F32.0 °F93 %30.51 in4.3 miWNW (300°)6.7 mphSnowLight Snow
12:30 PM33.8 °F32.0 °F93 %30.51 in4.3 miNW (320°)6.7 mphSnowLight Snow
1:00 PM33.8 °F30.2 °F87 %30.51 in5.6 miNW (320°)8.9 mphSnowLight Snow
1:30 PM33.8 °F30.2 °F87 %30.51 in6.2 miNW (320°)8.9 mphSnowLight Snow
2:00 PM34.0 °F29.0 °F75 %30.54 in6.0 miNW (310°)11.2 mphSnowLight Snow
2:00 PM32.0 °F30.2 °F93 %30.48 in5.0 miNorth (350°)6.7 mphSnowLight Snow
2:30 PM32.0 °F30.2 °F93 %30.48 in4.3 miNorth (350°)4.5 mphSnowLight Snow
3:00 PM32.0 °F30.2 °F93 %30.48 in5.0 miNNE (20°)4.5 mphSnowLight Snow
3:30 PM32.0 °F30.2 °F93 %30.48 in5.6 miVariable2.2 mphSnowLight Snow
4:00 PM32.0 °F30.2 °F93 %30.51 in6.2 miVariable2.2 mphSnowLight Snow
4:30 PM32.0 °F30.2 °F93 %30.51 in6.2 miNNE (20°)2.2 mphSnowLight Snow
5:00 PM33.0 °F29.0 °F79 %30.55 in6.0 miCalmSnowLight Snow
5:00 PM32.0 °F30.2 °F93 %30.51 in6.2 miCalmOvercast
6:00 PM32.0 °F28.4 °F87 %30.51 in6.2 miCalmOvercast
7:00 PM32.0 °F30.2 °F93 %30.51 in6.2 miCalmOvercast
8:00 PM32.0 °F28.0 °F81 %30.56 in6.0 miNE (40°)2.2 mphPartly Cloudy
8:00 PM32.0 °F28.4 °F87 %30.51 in5.0 miCalmMostly Cloudy
9:00 PM30.2 °F28.4 °F93 %30.51 inSE (130°)6.7 mphScattered Clouds
10:00 PM28.4 °F26.6 °F93 %30.51 inSE (130°)4.5 mphPartly Cloudy
11:00 PM30.0 °F27.0 °F84 %30.55 in6.0 miEast (100°)4.5 mphScattered Clouds
11:00 PM28.4 °F28.4 °F100 %30.48 in1.6 miCalmPartly Cloudy
11:30 PM28.4 °F26.6 °F93 %30.48 in3.1 miESE (120°)4.5 mphPartly Cloudy
Hourly data recorded from UTAA, located miles away from Kurtile, Turkmenistan







STORIES FROM OUR PARTNERS